Flag for Germany Weather past 2 weeks in Cuxhaven, Lower Saxony, Germany

Now
50 °F

Scattered clouds.


Feels Like: 43 °F
Forecast: 40 / 58 °F
Wind: 21 mph from Northwest

Location: Nordholz


UV Index: 3 (Moderate)

Visibility: N/A


Pressure: 29.86 "Hg

Humidity: 67%

Dew point: 39 °F

Location of CuxhavenLocation

Historic Weather in Cuxhaven

°F

Cuxhaven temperature yesterday

Maximum temperature yesterday: 61 °F (at 2:20 PM)
Minimum temperature yesterday: 43 °F (at 6:20 AM)
Average temperature yesterday: 50 °F

Past Weeks' High & Low Weather Summary

 TemperatureHumidityPressure
High66 °F (Apr 7, 5:20 PM)100% (Apr 4, 2:20 PM)30.48 "Hg (Apr 4, 2:20 PM)
Low32 °F (Apr 16, 6:20 AM)41% (Apr 16, 2:20 PM)29.62 "Hg (Apr 8, 6:20 AM)
Average48 °F83%29.99 "Hg
* Reported Apr 3 11:20 AM — Apr 18 11:20 AM, Cuxhaven, Weather by CustomWeather, © 2014

Note: Actual official high and low records may vary slightly from our data, if they occured in-between our weather recording intervals... More about our weather records

Advertising

Historic Weather Conditions — Data for Previous 24 hours

 ConditionsComfort  
Time TempWeatherWind HumidityBarometerVisibility
11:20 AM
Apr 18
46 °FBroken clouds.18 mph82%29.83 "HgN/A
10:20 AM45 °FSprinkles. Partly sunny.14 mph87%29.86 "Hg5 mi
9:20 AM46 °FSprinkles. Broken clouds.15 mph76%29.83 "HgN/A
8:20 AM45 °FPartly sunny.21 mph81%29.80 "HgN/A
7:20 AM45 °FScattered showers. Broken clouds.15 mph87%29.80 "HgN/A
6:20 AM45 °FScattered showers. Passing clouds.21 mph87%29.77 "HgN/A
5:20 AM43 °FQuite cool.16 mph93%29.77 "Hg3 mi
4:20 AM43 °FQuite cool.16 mph87%29.77 "Hg3 mi
3:20 AM45 °FQuite cool.21 mph81%29.77 "Hg3 mi
2:20 AM45 °FQuite cool.21 mph87%29.77 "Hg3 mi
1:20 AM46 °FCool.18 mph82%29.77 "Hg3 mi
12:20 AM45 °FQuite cool.14 mph76%29.80 "Hg3 mi
11:20 PM
Apr 17
45 °FQuite cool.15 mph87%29.80 "Hg3 mi
10:20 PM46 °FCool.15 mph93%29.83 "Hg2 mi
9:20 PM48 °FCool.17 mph94%29.83 "Hg1 mi
8:20 PM50 °FLight rain. Partly sunny.21 mph82%29.86 "Hg4 mi
6:20 PM52 °FBroken clouds.18 mph67%29.89 "HgN/A
5:20 PM57 °FPartly sunny.17 mph48%29.92 "HgN/A
4:20 PM59 °FPartly sunny.18 mph45%29.92 "HgN/A
3:20 PM61 °FBroken clouds.22 mph42%29.95 "HgN/A
2:20 PM61 °FScattered clouds.22 mph42%30.01 "HgN/A
1:20 PM59 °FScattered clouds.21 mph48%30.04 "HgN/A
Weather by CustomWeather, © 2014

See weather overview